SCP
0 0 0 0 0 0 0 0 0 0 0 0 0 0 0 0 0 0 0 0 0 0 0 0 0 0 0 0 0 0 0 0 0 0 0 0 0 0 0 0 0 0 0
0 0 0 0 0 0 0 0 0 0 0 0 0 0 0 0 0 0 0 0 0 0 0 0 0 0 0 0 0 0 0 0 0 0 0 0 0 0 0 0 0 0 0
0 0 0 0 0 0 0 0 0 0 0 0 0 0 0 0 0 0 0 0 0 0 0 0 0 0 0 0 0 0 0 0 0 0 0 0 0 0 0 0 0 0 0
0 0 0 0 0 0 0 0 0 0 0 0 0 0 0 0 0 0 0 0 0 0 0 0 0 0 0 0 0 0 0 0 0 0 0 0 0 0 0 0 0 0 0
0 0 0 0 0 0 0 0 0 0 0 0 0 0 0 0 0 0 0 0 0 0 0 0 0 0 0 0 0 0 0 0 0 0 0 0 0 0 0 0 0 0 0
0 0 0 0 0 0 0 0 0 0 0 0 0 0 0 0 0 0 0 0 0 0 0 0 0 0 0 0 0 0 0 0 0 0 0 0 0 0 0 0 0 0 0
0 0 0 0 0 0 0 0 0 0 0 0 0 0 0 0 0 0 0 0 0 0 0 0 0 0 0 0 0 0 0 0 0 0 0 0 0 0 0 0 0 0 0
0 0 0 0 0 0 0 0 0 0 0 0 0 0 0 0 0 0 0 0 0 0 0 0 0 0 0 0 0 0 0 0 0 0 0 0 0 0 0 0 0 0 0
0 0 0 0 0 0 0 0 0 0 0 0 0 0 0 0 0 0 0 0 0 0 0 0 0 0 0 0 0 0 0 0 0 0 0 0 0 0 0 0 0 0 0
0 0 0 0 0 0 0 0 0 0 0 0 0 0 0 0 0 0 0 0 0 0 0 0 0 0 0 0 0 0 0 0 0 0 0 0 0 0 0 0 0 0 0
0 0 0 0 0 0 0 0 0 0 0 0 0 0 0 0 0 0 0 0 0 0 0 0 0 0 0 0 0 0 0 0 0 0 0 0 0 0 0 0 0 0 0
0 0 0 0 0 0 0 0 0 0 0 0 0 0 0 0 0 0 0 0 0 0 0 0 0 0 0 0 0 0 0 0 0 0 0 0 0 0 0 0 0 0 0
0 0 0 0 0 0 0 0 0 0 0 0 0 0 0 0 0 0 0 0 0 0 0 0 0 0 0 0 0 0 0 0 0 0 0 0 0 0 0 0 0 0 0
0 0 0 0 0 0 0 0 0 0 0 0 0 0 0 0 0 0 0 0 0 0 0 0 0 0 0 0 0 0 0 0 0 0 0 0 0 0 0 0 0 0 0
0 0 0 0 0 0 0 0 0 0 0 0 0 0 0 0 0 0 0 0 0 0 0 0 0 0 0 0 0 0 0 0 0 0 0 0 0 0 0 0 0 0 0
0 0 0 0 0 0 0 0 0 0 0 0 0 0 0 0 0 0 0 0 0 0 0 0 0 0 0 0 0 0 0 0 0 0 0 0 0 0 0 0 0 0 0
0 0 0 0 0 0 0 0 0 0 0 0 0 0 0 0 0 0 0 0 0 0 0 0 0 0 0 0 0 0 0 0 0 0 0 0 0 0 0 0 0 0 0
0 0 0 0 0 0 0 0 0 0 0 0 0 0 0 0 0 0 0 0 0 0 0 0 0 0 0 0 0 0 0 0 0 0 0 0 0 0 0 0 0 0 0
0 0 0 0 0 0 0 0 0 0 0 0 0 0 0 0 0 0 0 0 0 0 0 0 0 0 0 0 0 0 0 0 0 0 0 0 0 0 0 0 0 0 0
0 0 0 0 0 0 0 0 0 0 0 0 0 0 0 0 0 0 0 0 0 0 0 0 0 0 0 0 0 0 0 0 0 0 0 0 0 0 0 0 0 0 0
0 0 0 0 0 0 0 0 0 0 0 0 0 0 0 0 0 0 0 0 0 0 0 0 0 0 0 0 0 0 0 0 0 0 0 0 0 0 0 0 0 0 0
0 0 0 0 0 0 0 0 0 0 0 0 0 0 0 0 0 0 0 0 0 0 0 0 0 0 0 0 0 0 0 0 0 0 0 0 0 0 0 0 0 0 0
0 0 0 0 0 0 0 0 0 0 0 0 0 0 0 0 0 0 0 0 0 0 0 0 0 0 0 0 0 0 0 0 0 0 0 0 0 0 0 0 0 0 0
0 0 0 0 0 0 0 0 0 0 0 0 0 0 0 0 0 0 0 0 0 0 0 0 0 0 0 0 0 0 0 0 0 0 0 0 0 0 0 0 0 0 0
0 0 0 0 0 0 0 0 0 0 0 0 0 0 0 0 0 0 0 0 0 0 0 0 0 0 0 0 0 0 0 0 0 0 0 0 0 0 0 0 0 0 0
0 0 0 0 0 0 0 0 0 0 0 0 0 0 0 0 0 0 0 0 0 0 0 0 0 0 0 0 0 0 0 0 0 0 0 0 0 0 0 0 0 0 0
Wind_Speed
9 9 9 9 10 10 10 11 11 12 13 14 14 14 14 14 15 15 16 16 17 17 18 18 18 18 18 19 19 19 19 19 18 18 19 19 19 19 18 16 15 16 20
11 11 10 9 10 10 10 10 10 11 12 13 14 13 14 14 15 15 15 16 16 17 17 17 17 18 18 18 18 18 18 18 17 15 15 17 19 19 19 19 18 15 19
13 11 11 10 10 11 10 10 10 11 13 14 14 13 14 14 14 14 15 15 16 16 17 17 17 17 17 17 17 17 17 16 15 11 11 13 16 19 19 19 19 19 19
12 11 10 11 11 11 10 10 10 12 13 13 14 13 13 14 14 14 14 14 15 16 16 16 16 16 16 16 16 16 16 15 12 9 10 12 13 17 18 18 18 18 18
11 10 11 10 11 11 11 10 11 12 12 13 13 13 13 13 13 13 13 13 14 15 15 15 15 16 15 16 16 15 15 14 10 11 11 12 12 16 17 17 17 17 16
12 11 11 10 11 11 11 11 11 12 12 12 13 13 13 13 13 13 12 12 13 13 14 14 14 15 15 15 15 14 13 10 9 10 10 10 11 14 15 15 15 15 15
12 10 11 9 10 10 10 11 11 11 12 12 13 13 13 12 12 12 12 11 12 12 13 13 14 14 14 14 14 13 12 8 9 10 9 10 11 13 14 13 13 13 13
11 10 11 9 8 8 9 9 10 11 11 12 12 12 12 11 11 11 11 11 11 12 12 13 13 13 13 13 13 12 9 6 8 9 9 9 11 12 12 12 12 12 12
11 10 10 10 9 8 7 8 8 9 10 11 11 11 10 10 10 9 9 10 10 11 12 12 12 12 12 12 11 11 9 4 6 6 7 7 9 10 10 10 10 10 10
10 9 9 9 9 9 9 8 8 8 9 10 10 10 10 9 9 8 7 8 9 10 11 11 11 11 11 11 10 9 6 2 6 5 5 7 7 8 8 8 8 8 8
9 9 9 9 9 8 8 8 8 8 9 10 9 9 7 7 7 6 8 8 9 9 10 10 10 11 9 9 8 6 2 2 4 3 4 6 6 7 7 7 6 6 7
12 11 9 9 9 8 6 7 6 6 7 6 6 7 5 5 4 5 8 8 8 8 9 9 9 8 4 5 6 3 2 3 2 2 3 4 5 5 5 5 5 5 5
13 11 10 9 9 8 6 5 4 4 5 5 7 6 5 5 4 4 4 5 6 6 5 6 5 3 3 2 3 2 2 2 1 1 3 3 4 5 5 5 4 4 4
13 13 11 10 9 9 7 6 5 4 4 4 6 7 5 4 4 4 3 4 4 3 4 4 3 3 3 3 3 3 4 3 2 2 2 2 4 5 6 6 6 6 6
14 13 13 12 11 9 8 6 6 6 5 5 5 6 6 5 5 5 4 4 4 4 4 4 3 4 4 4 4 5 5 4 4 4 3 4 5 7 8 9 9 8 8
14 14 13 13 12 11 9 7 6 6 5 6 6 7 8 5 5 5 5 5 4 4 4 4 4 4 4 4 5 6 6 6 6 6 5 5 8 9 11 12 12 12 12
14 14 14 13 13 12 11 10 7 6 6 6 6 7 8 7 7 6 5 5 5 5 5 4 5 4 4 5 6 7 6 7 7 8 8 7 7 10 12 15 15 15 15
14 14 14 11 13 13 12 10 8 7 8 7 6 7 9 9 8 6 5 6 5 5 5 5 5 5 5 5 6 6 6 6 8 9 8 9 8 8 11 16 17 18 18
14 14 15 15 15 14 12 10 9 8 8 7 7 7 8 9 9 8 6 5 6 5 5 5 5 6 6 7 6 6 6 7 8 9 11 11 11 11 10 11 15 16 20
14 14 15 15 15 13 10 9 7 8 8 7 7 8 9 9 10 9 7 7 7 6 6 6 7 6 6 5 5 7 7 8 8 10 12 11 11 13 13 12 10 11 19
14 15 16 16 15 12 10 9 9 9 8 7 7 9 11 10 11 10 7 8 8 8 9 9 7 7 6 4 4 6 8 11 12 11 11 11 13 13 13 13 11 10 10
14 16 16 16 15 15 12 10 8 8 7 8 7 9 11 11 11 9 11 8 9 8 9 9 8 5 5 6 5 4 6 7 10 11 11 11 13 11 12 14 13 13 12
11 13 13 15 15 15 14 9 5 5 4 5 8 8 10 11 11 10 11 10 9 9 9 11 11 9 7 7 8 7 5 7 6 4 9 9 10 10 11 11 14 14 14
7 8 11 12 13 13 13 11 12 9 10 10 7 7 8 10 10 11 11 11 10 9 10 10 10 10 8 7 7 9 10 5 5 7 5 6 9 11 12 10 11 13 14
1 4 6 9 10 10 12 12 12 11 9 6 5 6 7 6 8 9 9 9 9 9 10 10 10 11 9 9 7 6 8 8 9 8 11 10 8 8 10 11 11 11 13
4 3 4 6 6 7 9 10 11 10 9 7 6 5 5 4 5 8 8 8 9 8 9 10 10 12 10 11 9 7 7 7 8 9 12 12 11 9 9 9 10 11 11
Wind_Direction
153 145 134 133 125 116 110 107 108 107 106 102 98 95 93 90 86 85 84 83 81 80 80 79 78 78 78 77 76 75 73 72 73 75 76 76 76 74 71 68 71 71 70
144 142 132 131 124 117 112 109 107 108 109 106 102 100 98 94 90 88 88 88 86 85 84 83 83 82 81 80 79 77 75 73 72 71 78 77 74 73 72 70 69 73 72
142 140 136 125 123 120 116 113 109 110 109 107 103 101 101 98 94 92 91 91 90 89 88 88 87 85 84 82 81 79 77 74 70 64 77 79 76 73 74 73 73 73 73
141 140 135 126 127 123 120 116 113 111 110 108 105 102 102 101 98 94 92 92 93 93 93 92 90 89 88 86 83 80 78 74 65 65 75 75 76 74 73 72 71 72 73
142 138 130 131 130 127 124 120 116 113 112 111 109 106 104 102 98 95 94 92 93 95 95 94 94 93 91 89 87 83 80 77 70 74 75 76 76 75 74 73 72 72 73
143 139 135 134 131 130 128 125 121 117 116 114 111 108 106 103 99 96 95 93 95 98 99 98 98 97 95 93 90 87 84 80 84 77 76 76 78 80 80 79 78 77 76
146 143 140 135 133 134 133 129 125 121 118 116 113 110 108 106 103 99 97 96 97 103 103 102 101 100 99 97 94 91 85 71 79 81 80 79 80 82 82 82 81 80 80
148 146 142 135 134 135 133 129 127 124 121 118 116 114 112 109 106 103 101 100 101 105 106 103 103 103 101 100 98 94 83 76 89 86 83 82 83 85 84 84 83 83 84
154 153 151 151 146 136 129 127 123 121 120 120 118 113 108 106 103 98 98 102 104 106 107 106 106 104 104 104 102 98 85 58 87 84 84 85 90 89 89 89 89 88 89
164 164 161 159 158 155 148 129 123 120 117 114 111 108 105 105 101 94 104 100 105 106 107 108 108 106 107 107 107 103 101 117 90 93 89 94 96 95 95 94 94 95 95
175 175 172 168 166 162 156 145 141 128 121 124 121 118 131 133 128 124 101 96 104 107 109 111 110 108 110 110 107 110 144 100 98 85 91 106 114 109 108 107 106 106 107
184 184 183 180 174 170 161 162 162 159 155 160 151 152 150 138 128 123 103 94 97 103 110 109 109 120 139 135 131 169 144 124 122 107 107 130 137 130 127 126 125 125 125
189 187 191 189 183 181 173 173 170 168 167 170 167 164 156 150 146 151 142 135 133 136 133 129 145 159 165 162 172 182 168 187 186 158 137 158 173 166 162 163 166 166 164
193 194 193 193 191 191 187 183 180 179 179 179 177 178 173 170 171 168 170 164 164 166 161 169 172 175 184 190 199 201 202 221 225 223 165 192 225 212 200 198 199 199 199
197 197 196 196 196 194 193 193 192 192 193 188 184 187 192 186 184 181 180 182 185 182 185 188 190 189 198 202 212 219 223 231 236 235 214 208 242 239 229 222 218 217 218
202 199 197 199 200 198 198 199 200 200 196 199 197 197 199 201 194 191 191 193 196 198 198 202 202 205 212 215 220 225 232 233 235 238 245 224 230 241 243 238 232 227 226
204 202 200 200 201 202 205 206 206 204 203 205 205 205 204 208 206 203 203 202 201 199 198 202 206 218 223 224 229 230 235 238 241 240 242 246 238 234 242 246 244 239 235
207 205 203 200 203 205 206 207 208 209 208 211 210 208 209 211 213 211 213 213 201 196 200 205 204 213 223 228 233 230 233 237 241 243 243 243 245 243 237 240 246 246 243
212 209 206 204 206 207 207 209 211 211 213 213 212 212 211 212 213 215 219 217 200 199 206 207 212 219 226 229 237 241 239 240 241 240 242 243 243 245 245 241 242 248 249
217 215 212 208 209 207 206 211 213 215 216 216 213 212 211 211 211 215 220 217 202 204 210 212 218 222 237 243 245 251 250 247 245 244 245 244 243 243 244 246 244 244 246
217 216 215 212 209 204 203 206 210 215 214 215 216 214 213 212 209 212 216 216 207 213 217 214 216 223 230 223 242 261 254 244 244 243 242 244 243 242 242 243 242 244 247
215 215 215 215 211 206 208 209 212 215 217 217 212 214 215 214 210 209 215 216 211 217 222 216 207 212 220 194 211 248 277 263 235 234 237 239 245 244 242 241 242 242 244
218 216 214 215 213 210 210 208 199 206 206 212 218 217 217 217 214 213 217 218 216 216 221 218 210 211 223 212 212 218 242 266 296 237 236 239 242 242 243 242 241 243 244
226 221 219 216 214 211 208 208 208 211 220 225 225 224 220 217 221 220 224 224 223 221 227 224 216 218 225 226 217 228 239 264 278 287 250 244 246 245 245 244 245 245 244
229 206 205 205 208 208 207 210 214 222 229 233 228 231 231 225 227 229 229 230 230 228 230 228 222 220 221 230 221 217 232 243 243 257 277 274 254 240 244 246 248 248 246
74 106 148 170 184 195 200 207 214 221 224 226 225 231 235 235 236 238 240 241 240 238 236 234 230 227 226 231 234 225 222 229 232 237 262 276 277 268 248 241 245 248 248